"Period start","avg(HW err(1)/warn(2) (#))","avg(Visibility (m))","avg(Weather code (#))","avg(Precip intensity (mm/h))","min(HW err(1)/warn(2) (#))","max(HW err(1)/warn(2) (#))","std(HW err(1)/warn(2) (#))","med(HW err(1)/warn(2) (#))","min(Visibility (m))","max(Visibility (m))","std(Visibility (m))","med(Visibility (m))","min(Weather code (#))","max(Weather code (#))","std(Weather code (#))","med(Weather code (#))","min(Precip intensity (mm/h))","max(Precip intensity (mm/h))","std(Precip intensity (mm/h))","med(Precip intensity (mm/h))"
2014-06-29 00:00:00,2,47068,0,0.00,2,2,0,2,36917,50000,3969,48921,0,0,0,0,0.00,0.00,0.00,0.00
2014-06-29 00:10:00,2,45413,0,0.00,2,2,0,2,32469,50000,5933,48640,0,0,0,0,0.00,0.00,0.00,0.00
2014-06-29 00:20:00,2,44323,0,0.00,2,2,0,2,33301,50000,5855,46254,0,0,0,0,0.00,0.00,0.00,0.00
2014-06-29 00:30:00,2,46979,0,0.00,2,2,0,2,41332,50000,3356,48190,0,0,0,0,0.00,0.00,0.00,0.00
2014-06-29 00:40:00,2,31754,0,0.00,2,2,0,2,20430,40018,5194,32945,0,0,0,0,0.00,0.00,0.00,0.00
2014-06-29 00:50:00,2,43337,0,0.00,2,2,0,2,35926,50000,4904,43451,0,0,0,0,0.00,0.00,0.00,0.00
2014-06-29 01:00:00,2,39417,0,0.00,2,2,0,2,28892,50000,8043,37050,0,0,0,0,0.00,0.00,0.00,0.00
2014-06-29 01:10:00,2,40002,0,0.00,2,2,0,2,21898,50000,8171,41229,0,0,0,0,0.00,0.00,0.00,0.00
2014-06-29 01:20:00,2,37166,0,0.00,2,2,0,2,24420,50000,8015,37268,0,0,0,0,0.00,0.00,0.00,0.00
2014-06-29 01:30:00,2,44125,0,0.00,2,2,0,2,34983,50000,5303,45460,0,0,0,0,0.00,0.00,0.00,0.00
2014-06-29 01:40:00,2,45208,0,0.00,2,2,0,2,36008,50000,5471,48646,0,0,0,0,0.00,0.00,0.00,0.00
2014-06-29 01:50:00,2,44824,0,0.00,2,2,0,2,33898,50000,5693,46752,0,0,0,0,0.00,0.00,0.00,0.00
2014-06-29 02:00:00,2,36370,0,0.00,2,2,0,2,17232,50000,10159,37770,0,0,0,0,0.00,0.00,0.00,0.00
2014-06-29 02:10:00,2,47249,0,0.00,2,2,0,2,40097,50000,3664,50000,0,0,0,0,0.00,0.00,0.00,0.00
2014-06-29 02:20:00,2,42882,0,0.00,2,2,0,2,33564,50000,6581,42560,0,0,0,0,0.00,0.00,0.00,0.00
2014-06-29 02:30:00,2,35946,0,0.00,2,2,0,2,21266,46333,8031,36820,0,0,0,0,0.00,0.00,0.00,0.00
2014-06-29 02:40:00,2,43206,0,0.00,2,2,0,2,27653,50000,6160,44132,0,0,0,0,0.00,0.00,0.00,0.00
2014-06-29 02:50:00,2,47712,0,0.00,2,2,0,2,39468,50000,3797,50000,0,0,0,0,0.00,0.00,0.00,0.00
2014-06-29 03:00:00,2,43264,0,0.00,2,2,0,2,33371,50000,5444,44278,0,0,0,0,0.00,0.00,0.00,0.00
2014-06-29 03:10:00,2,48115,0,0.00,2,2,0,2,42144,50000,2687,49680,0,0,0,0,0.00,0.00,0.00,0.00
2014-06-29 03:20:00,2,45577,0,0.00,2,2,0,2,38689,50000,3669,46436,0,0,0,0,0.00,0.00,0.00,0.00
2014-06-29 03:30:00,2,40166,0,0.00,2,2,0,2,25547,50000,8699,43026,0,0,0,0,0.00,0.00,0.00,0.00
2014-06-29 03:40:00,1,44316,0,0.00,0,2,1,2,33397,50000,6219,46536,0,0,0,0,0.00,0.00,0.00,0.00
2014-06-29 03:50:00,0,47478,0,0.00,0,0,0,0,38581,50000,3497,48900,0,0,0,0,0.00,0.00,0.00,0.00
2014-06-29 04:00:00,0,44060,0,0.00,0,0,0,0,30148,50000,6605,45962,0,0,0,0,0.00,0.00,0.00,0.00
2014-06-29 04:10:00,0,43241,0,0.00,0,0,0,0,36327,50000,4798,43109,0,0,0,0,0.00,0.00,0.00,0.00
2014-06-29 04:20:00,0,49135,0,0.00,0,0,0,0,43836,50000,1855,50000,0,0,0,0,0.00,0.00,0.00,0.00
2014-06-29 04:30:00,0,46201,0,0.00,0,0,0,0,36897,50000,4395,48188,0,0,0,0,0.00,0.00,0.00,0.00
2014-06-29 04:40:00,0,46831,0,0.00,0,0,0,0,40634,50000,3425,48156,0,0,0,0,0.00,0.00,0.00,0.00
2014-06-29 04:50:00,0,47896,0,0.00,0,0,0,0,43212,50000,2620,49428,0,0,0,0,0.00,0.00,0.00,0.00
2014-06-29 05:00:00,0,48649,0,0.00,0,0,0,0,39664,50000,3065,50000,0,0,0,0,0.00,0.00,0.00,0.00
2014-06-29 05:10:00,0,48019,0,0.00,0,0,0,0,43008,50000,2742,49900,0,0,0,0,0.00,0.00,0.00,0.00
2014-06-29 05:20:00,0,49050,0,0.00,0,0,0,0,45898,50000,1339,50000,0,0,0,0,0.00,0.00,0.00,0.00
2014-06-29 05:30:00,0,48242,0,0.00,0,0,0,0,44800,50000,2184,49659,0,0,0,0,0.00,0.00,0.00,0.00
2014-06-29 05:40:00,0,49192,0,0.00,0,0,0,0,44482,50000,1661,50000,0,0,0,0,0.00,0.00,0.00,0.00
2014-06-29 05:50:00,0,48506,0,0.00,0,0,0,0,42562,50000,2445,49850,0,0,0,0,0.00,0.00,0.00,0.00
2014-06-29 06:00:00,0,49215,0,0.00,0,0,0,0,42503,50000,2240,50000,0,0,0,0,0.00,0.00,0.00,0.00
2014-06-29 06:10:00,0,47710,0,0.00,0,0,0,0,40857,50000,2829,48831,0,0,0,0,0.00,0.00,0.00,0.00
2014-06-29 06:20:00,0,50000,0,0.00,0,0,0,0,50000,50000,0,50000,0,0,0,0,0.00,0.00,0.00,0.00
2014-06-29 06:30:00,0,49551,0,0.00,0,0,0,0,46516,50000,1032,50000,0,0,0,0,0.00,0.00,0.00,0.00
2014-06-29 06:40:00,0,43167,0,0.00,0,0,0,0,34743,50000,5682,44439,0,0,0,0,0.00,0.00,0.00,0.00
2014-06-29 06:50:00,0,47190,0,0.00,0,0,0,0,39484,50000,3328,48644,0,0,0,0,0.00,0.00,0.00,0.00
2014-06-29 07:00:00,0,47441,0,0.00,0,0,0,0,40176,50000,3553,50000,0,0,0,0,0.00,0.00,0.00,0.00
2014-06-29 07:10:00,0,48454,0,0.00,0,0,0,0,42574,50000,2888,50000,0,0,0,0,0.00,0.00,0.00,0.00
2014-06-29 07:20:00,0,47900,0,0.00,0,0,0,0,42524,50000,2298,48294,0,0,0,0,0.00,0.00,0.00,0.00
2014-06-29 07:30:00,0,48098,0,0.00,0,0,0,0,42363,50000,2634,49596,0,0,0,0,0.00,0.00,0.00,0.00
2014-06-29 07:40:00,0,49903,0,0.00,0,0,0,0,49030,50000,291,50000,0,0,0,0,0.00,0.00,0.00,0.00
2014-06-29 07:50:00,0,49276,0,0.00,0,0,0,0,45938,50000,1304,50000,0,0,0,0,0.00,0.00,0.00,0.00
2014-06-29 08:00:00,0,49931,0,0.00,0,0,0,0,49307,50000,208,50000,0,0,0,0,0.00,0.00,0.00,0.00
2014-06-29 08:10:00,0,49050,0,0.00,0,0,0,0,45034,50000,1902,50000,0,0,0,0,0.00,0.00,0.00,0.00
2014-06-29 08:20:00,0,47576,0,0.00,0,0,0,0,35867,50000,4220,50000,0,0,0,0,0.00,0.00,0.00,0.00
2014-06-29 08:30:00,0,49574,0,0.00,0,0,0,0,46362,50000,1087,50000,0,0,0,0,0.00,0.00,0.00,0.00
2014-06-29 08:40:00,0,49223,0,0.00,0,0,0,0,44407,50000,1732,50000,0,0,0,0,0.00,0.00,0.00,0.00
2014-06-29 08:50:00,0,48998,0,0.00,0,0,0,0,42194,50000,2313,50000,0,0,0,0,0.00,0.00,0.00,0.00
2014-06-29 09:00:00,0,49329,0,0.00,0,0,0,0,44369,50000,1684,50000,0,0,0,0,0.00,0.00,0.00,0.00
2014-06-29 09:10:00,0,49397,0,0.00,0,0,0,0,44428,50000,1659,50000,0,0,0,0,0.00,0.00,0.00,0.00
2014-06-29 09:20:00,0,49865,0,0.00,0,0,0,0,48792,50000,360,50000,0,0,0,0,0.00,0.00,0.00,0.00
2014-06-29 09:30:00,0,49732,0,0.00,0,0,0,0,47317,50000,805,50000,0,0,0,0,0.00,0.00,0.00,0.00
2014-06-29 09:40:00,0,48472,0,0.00,0,0,0,0,41584,50000,2787,50000,0,0,0,0,0.00,0.00,0.00,0.00
2014-06-29 09:50:00,0,49942,0,0.00,0,0,0,0,49495,50000,151,50000,0,0,0,0,0.00,0.00,0.00,0.00
2014-06-29 10:00:00,0,49244,0,0.00,0,0,0,0,46993,50000,1182,50000,0,0,0,0,0.00,0.00,0.00,0.00
2014-06-29 10:10:00,0,49684,0,0.00,0,0,0,0,47481,50000,759,50000,0,0,0,0,0.00,0.00,0.00,0.00
2014-06-29 10:20:00,0,48368,0,0.00,0,0,0,0,42182,50000,2485,50000,0,0,0,0,0.00,0.00,0.00,0.00
2014-06-29 10:30:00,0,47980,0,0.00,0,0,0,0,40432,50000,3060,50000,0,0,0,0,0.00,0.00,0.00,0.00
2014-06-29 10:40:00,0,46857,0,0.00,0,0,0,0,38002,50000,3842,48736,0,0,0,0,0.00,0.00,0.00,0.00
2014-06-29 10:50:00,0,47263,0,0.00,0,0,0,0,37780,50000,4750,50000,0,0,0,0,0.00,0.00,0.00,0.00
2014-06-29 11:00:00,0,43733,0,0.00,0,0,0,0,36839,50000,4796,43092,0,0,0,0,0.00,0.00,0.00,0.00
2014-06-29 11:10:00,2,37141,0,0.00,0,2,1,2,21420,50000,8873,38192,0,0,0,0,0.00,0.00,0.00,0.00
2014-06-29 11:20:00,2,39195,0,0.00,2,2,0,2,17961,50000,10923,42684,0,0,0,0,0.00,0.00,0.00,0.00
2014-06-29 11:30:00,1,41581,0,0.00,0,2,1,2,31122,50000,7832,41519,0,0,0,0,0.00,0.00,0.00,0.00
2014-06-29 11:40:00,2,46485,0,0.00,1,2,0,2,39209,50000,3996,48291,0,0,0,0,0.00,0.00,0.00,0.00
2014-06-29 11:50:00,1,43290,,0.00,1,2,0,1,34549,50000,6469,45322,,,,,0.00,0.00,0.00,0.00
2014-06-29 12:00:00,2,40648,3,0.00,2,2,0,2,28162,50000,7301,39924,0,4,2,4,0.00,0.00,0.00,0.00
2014-06-29 12:10:00,2,42519,0,0.00,2,2,0,2,30826,50000,5862,43586,0,0,0,0,0.00,0.00,0.00,0.00
2014-06-29 12:20:00,1,47837,0,0.00,0,2,1,2,38993,50000,3296,49460,0,0,0,0,0.00,0.00,0.00,0.00
2014-06-29 12:30:00,0,49849,0,0.00,0,0,0,0,48493,50000,452,50000,0,0,0,0,0.00,0.00,0.00,0.00
2014-06-29 12:40:00,0,49487,0,0.00,0,0,0,0,46023,50000,1205,50000,0,0,0,0,0.00,0.00,0.00,0.00
2014-06-29 12:50:00,0,50000,0,0.00,0,0,0,0,50000,50000,0,50000,0,0,0,0,0.00,0.00,0.00,0.00
2014-06-29 13:00:00,0,49800,0,0.00,0,0,0,0,48005,50000,598,50000,0,0,0,0,0.00,0.00,0.00,0.00
2014-06-29 13:10:00,0,48739,0,0.00,0,0,0,0,43931,50000,1925,49598,0,0,0,0,0.00,0.00,0.00,0.00
2014-06-29 13:20:00,0,49004,0,0.00,0,0,0,0,44321,50000,1814,50000,0,0,0,0,0.00,0.00,0.00,0.00
2014-06-29 13:30:00,0,49923,0,0.00,0,0,0,0,49226,50000,232,50000,0,0,0,0,0.00,0.00,0.00,0.00
2014-06-29 13:40:00,0,50000,0,0.00,0,0,0,0,50000,50000,0,50000,0,0,0,0,0.00,0.00,0.00,0.00
2014-06-29 13:50:00,0,50000,0,0.00,0,0,0,0,50000,50000,0,50000,0,0,0,0,0.00,0.00,0.00,0.00
2014-06-29 14:00:00,0,49790,0,0.00,0,0,0,0,47904,50000,629,50000,0,0,0,0,0.00,0.00,0.00,0.00
2014-06-29 14:10:00,0,50000,0,0.00,0,0,0,0,50000,50000,0,50000,0,0,0,0,0.00,0.00,0.00,0.00
2014-06-29 14:20:00,0,49844,0,0.00,0,0,0,0,48565,50000,428,50000,0,0,0,0,0.00,0.00,0.00,0.00
2014-06-29 14:30:00,0,50000,0,0.00,0,0,0,0,50000,50000,0,50000,0,0,0,0,0.00,0.00,0.00,0.00
2014-06-29 14:40:00,0,50000,0,0.00,0,0,0,0,50000,50000,0,50000,0,0,0,0,0.00,0.00,0.00,0.00
2014-06-29 14:50:00,0,49926,0,0.00,0,0,0,0,49262,50000,221,50000,0,0,0,0,0.00,0.00,0.00,0.00
2014-06-29 15:00:00,0,49907,0,0.00,0,0,0,0,49236,50000,229,50000,0,0,0,0,0.00,0.00,0.00,0.00
2014-06-29 15:10:00,0,49976,0,0.00,0,0,0,0,49871,50000,49,50000,0,0,0,0,0.00,0.00,0.00,0.00
2014-06-29 15:20:00,0,50000,0,0.00,0,0,0,0,50000,50000,0,50000,0,0,0,0,0.00,0.00,0.00,0.00
2014-06-29 15:30:00,0,50000,0,0.00,0,0,0,0,50000,50000,0,50000,0,0,0,0,0.00,0.00,0.00,0.00
2014-06-29 15:40:00,0,50000,0,0.00,0,0,0,0,50000,50000,0,50000,0,0,0,0,0.00,0.00,0.00,0.00
2014-06-29 15:50:00,1,50000,0,0.00,0,2,1,2,50000,50000,0,50000,0,0,0,0,0.00,0.00,0.00,0.00
2014-06-29 16:00:00,2,50000,0,0.00,0,2,1,2,50000,50000,0,50000,0,0,0,0,0.00,0.00,0.00,0.00
2014-06-29 16:10:00,2,50000,0,0.00,0,2,1,2,50000,50000,0,50000,0,0,0,0,0.00,0.00,0.00,0.00
2014-06-29 16:20:00,2,50000,0,0.00,2,2,0,2,50000,50000,0,50000,0,0,0,0,0.00,0.00,0.00,0.00
2014-06-29 16:30:00,2,50000,0,0.00,2,2,0,2,50000,50000,0,50000,0,0,0,0,0.00,0.00,0.00,0.00
2014-06-29 16:40:00,2,49932,0,0.00,0,2,1,2,49321,50000,204,50000,0,0,0,0,0.00,0.00,0.00,0.00
2014-06-29 16:50:00,2,49990,0,0.00,0,2,1,2,49902,50000,29,50000,0,0,0,0,0.00,0.00,0.00,0.00
2014-06-29 17:00:00,2,49872,0,0.00,2,2,0,2,48724,50000,383,50000,0,0,0,0,0.00,0.00,0.00,0.00
2014-06-29 17:10:00,2,49926,0,0.00,2,2,0,2,49255,50000,224,50000,0,0,0,0,0.00,0.00,0.00,0.00
2014-06-29 17:20:00,0,50000,0,0.00,0,2,1,0,50000,50000,0,50000,0,0,0,0,0.00,0.00,0.00,0.00
2014-06-29 17:30:00,0,50000,0,0.00,0,0,0,0,50000,50000,0,50000,0,0,0,0,0.00,0.00,0.00,0.00
2014-06-29 17:40:00,0,49603,0,0.00,0,0,0,0,46027,50000,1192,50000,0,0,0,0,0.00,0.00,0.00,0.00
2014-06-29 17:50:00,0,49435,0,0.00,0,0,0,0,45207,50000,1432,50000,0,0,0,0,0.00,0.00,0.00,0.00
2014-06-29 18:00:00,0,50000,0,0.00,0,0,0,0,50000,50000,0,50000,0,0,0,0,0.00,0.00,0.00,0.00
2014-06-29 18:10:00,0,50000,0,0.00,0,0,0,0,50000,50000,0,50000,0,0,0,0,0.00,0.00,0.00,0.00
2014-06-29 18:20:00,0,50000,0,0.00,0,0,0,0,50000,50000,0,50000,0,0,0,0,0.00,0.00,0.00,0.00
2014-06-29 18:30:00,0,50000,0,0.00,0,0,0,0,50000,50000,0,50000,0,0,0,0,0.00,0.00,0.00,0.00
2014-06-29 18:40:00,0,50000,0,0.00,0,0,0,0,50000,50000,0,50000,0,0,0,0,0.00,0.00,0.00,0.00
2014-06-29 18:50:00,0,50000,0,0.00,0,0,0,0,50000,50000,0,50000,0,0,0,0,0.00,0.00,0.00,0.00
2014-06-29 19:00:00,0,48488,0,0.00,0,0,0,0,41141,50000,3079,50000,0,0,0,0,0.00,0.00,0.00,0.00
2014-06-29 19:10:00,0,49896,0,0.00,0,0,0,0,48965,50000,310,50000,0,0,0,0,0.00,0.00,0.00,0.00
2014-06-29 19:20:00,0,49987,0,0.00,0,0,0,0,49895,50000,31,50000,0,0,0,0,0.00,0.00,0.00,0.00
2014-06-29 19:30:00,0,49549,0,0.00,0,0,0,0,47461,50000,879,50000,0,0,0,0,0.00,0.00,0.00,0.00
2014-06-29 19:40:00,0,49400,0,0.00,0,0,0,0,44164,50000,1746,50000,0,0,0,0,0.00,0.00,0.00,0.00
2014-06-29 19:50:00,0,49973,0,0.00,0,0,0,0,49728,50000,82,50000,0,0,0,0,0.00,0.00,0.00,0.00
2014-06-29 20:00:00,0,49793,0,0.00,0,0,0,0,48854,50000,417,50000,0,0,0,0,0.00,0.00,0.00,0.00
2014-06-29 20:10:00,0,49235,0,0.00,0,0,0,0,47550,50000,1030,50000,0,0,0,0,0.00,0.00,0.00,0.00
2014-06-29 20:20:00,0,48783,0,0.00,0,0,0,0,44171,50000,1990,50000,0,0,0,0,0.00,0.00,0.00,0.00
2014-06-29 20:30:00,0,47990,0,0.00,0,0,0,0,44369,50000,2356,49610,0,0,0,0,0.00,0.00,0.00,0.00
2014-06-29 20:40:00,0,48405,0,0.00,0,0,0,0,42569,50000,2582,50000,0,0,0,0,0.00,0.00,0.00,0.00
2014-06-29 20:50:00,0,49306,0,0.00,0,0,0,0,47289,50000,983,49872,0,0,0,0,0.00,0.00,0.00,0.00
2014-06-29 21:00:00,0,49380,0,0.00,0,0,0,0,46306,50000,1104,50000,0,0,0,0,0.00,0.00,0.00,0.00
2014-06-29 21:10:00,0,49143,0,0.00,0,0,0,0,44925,50000,1721,50000,0,0,0,0,0.00,0.00,0.00,0.00
2014-06-29 21:20:00,0,49724,0,0.00,0,0,0,0,48537,50000,483,50000,0,0,0,0,0.00,0.00,0.00,0.00
2014-06-29 21:30:00,0,48645,0,0.00,0,0,0,0,44901,50000,1719,49317,0,0,0,0,0.00,0.00,0.00,0.00
2014-06-29 21:40:00,0,48578,0,0.00,0,0,0,0,43262,50000,2428,50000,0,0,0,0,0.00,0.00,0.00,0.00
2014-06-29 21:50:00,1,47888,0,0.00,0,2,1,2,39495,50000,3582,50000,0,0,0,0,0.00,0.00,0.00,0.00
2014-06-29 22:00:00,2,48220,0,0.00,2,2,0,2,40780,50000,3002,50000,0,0,0,0,0.00,0.00,0.00,0.00
2014-06-29 22:10:00,2,49723,0,0.00,2,2,0,2,48420,50000,561,50000,0,0,0,0,0.00,0.00,0.00,0.00
2014-06-29 22:20:00,2,48510,0,0.00,2,2,0,2,42415,50000,2982,50000,0,0,0,0,0.00,0.00,0.00,0.00
2014-06-29 22:30:00,2,49401,0,0.00,2,2,0,2,47194,50000,935,50000,0,0,0,0,0.00,0.00,0.00,0.00
2014-06-29 22:40:00,2,48194,0,0.00,2,2,0,2,41452,50000,3012,50000,0,0,0,0,0.00,0.00,0.00,0.00
2014-06-29 22:50:00,2,48640,0,0.00,2,2,0,2,42168,50000,2453,50000,0,0,0,0,0.00,0.00,0.00,0.00
2014-06-29 23:00:00,2,46484,0,0.00,2,2,0,2,35069,50000,4979,50000,0,0,0,0,0.00,0.00,0.00,0.00
2014-06-29 23:10:00,2,47084,0,0.00,2,2,0,2,38490,50000,3988,49548,0,0,0,0,0.00,0.00,0.00,0.00
2014-06-29 23:20:00,2,39423,0,0.00,2,2,0,2,30255,50000,7127,40094,0,0,0,0,0.00,0.00,0.00,0.00
2014-06-29 23:30:00,2,48057,0,0.00,2,2,0,2,41817,50000,2704,50000,0,0,0,0,0.00,0.00,0.00,0.00
2014-06-29 23:40:00,2,44302,0,0.00,2,2,0,2,32230,49349,5400,47298,0,0,0,0,0.00,0.00,0.00,0.00
2014-06-29 23:50:00,2,43653,0,0.00,2,2,0,2,36858,50000,4649,43334,0,0,0,0,0.00,0.00,0.00,0.00
